Find Starlink 32105

NORAD ID: 59689 Int'l Des: 2024-086 Owner: SPXS Country: US Constellation: starlink operational
LEOCIRCULAR

当前视图

正在加载3D地球...

About Starlink 32105

Starlink 32105 (NORAD 59689) is a starlink constellation satellite (v2 mini) launched May 8, 2024 by SPXS of US. It operates in LEO, CIRCULAR orbit with a mass of 730.00 kg.

关于 Starlink 32105

正在加载描述...

即将过境

Passes for default location (London). Set your location on the main map for personalized predictions.

高度历史

Loading altitude history...

两行轨道根数

1 59689U 24086H 26170.15878655 .00000315 00000-0 20981-4 0 9991
2 59689 43.0027 206.5908 0001716 274.4508 85.6147 15.27575103119637
Epoch: Jun 19, 2026 • Age: 25 hours

当前状态

高度 482.9 km
速度 7.63 km/s
星下点 20.72°N, 119.82°W
发射日期 May 8, 2024
运行时间 2.1 years
类型 internet

技术详情

分类 Payload
质量 730.00 kg
干质量 700.00 kg
总质量 730.00 kg
长度 0.30 m
直径 4.10 m
跨度 29.00 m
形状 Box + pan
制造商 SPXS
平台类型 Starlink V2M
阶段状态 In Orbit
所有者/国家 SPXS/US

Most Searched